This demonstration page uses our WeatherBlox Daily Observations layout. Learn more.

Left ArrowRight Arrow

Hourly Observations for May 19, 2022

Temp ( °F °C ) Dew Point ( °F °C ) Humidity (%) Winds ( mph kmh ) Pressure ( in mb ) Visibility ( mi km ) Precip ( " mm )
12:52 am 00:52 Clear 66 18.9 63 17.2 90 90 Calm 29.77 1008 10 16 0.00 0.00
1:52 am 01:52 Clear 66 18.9 62 16.7 87 87 Calm 29.75 1008 10 16 0.00 0.00
2:52 am 02:52 Clear 65 18.3 63 17.2 93 93 SE 3 6 29.72 1007 10 16 0.00 0.00
3:52 am 03:52 Clear 66 18.9 64 17.8 93 93 SE 6 9 29.71 1006 10 16 0.00 0.00
4:52 am 04:52 Clear 67 19.4 65 18.3 93 93 SSE 5 7 29.74 1007 10 16 0.00 0.00
5:52 am 05:52 Clear 67 19.4 65 18.3 93 93 SE 5 7 29.72 1006 10 16 0.00 0.00
6:52 am 06:52 Partly Cloudy 68 20 66 18.9 93 93 S 3 6 29.73 1007 10 16 0.00 0.00
7:35 am 07:35 Cloudy with Nearby Thunderstorms 68 20 66 18.9 93 93 SSW 9 15 29.75 1008 10 16 0.00 0.00
7:47 am 07:47 Cloudy with Thunderstorms 70 21 66 19 88 88 WSW 17 28 29.75 1007 10 16 0.00 0.00
7:52 am 07:52 Cloudy with Thunderstorms 69 20.6 66 18.9 90 90 SW 10 17 29.73 1007 9 14 0.00 0.00
8:11 am 08:11 Cloudy with Light Rain 68 20 67 19.4 96 96 E 10 17 29.68 1005 8 13 0.02 0.51
8:25 am 08:25 Cloudy with Thunderstorms 68 20 67 19.4 96 96 NE 12 19 29.65 1004 9 14 0.02 0.51
8:34 am 08:34 Mostly Cloudy with Nearby Thunderstorms 68 20 67 19.4 96 96 S 12 19 29.70 1006 8 13 0.02 0.51
8:52 am 08:52 Mostly Cloudy with Light Rain 68 20 67 19.4 96 96 SSE 8 13 29.68 1005 7 11 0.02 0.51
9:52 am 09:52 Mostly Cloudy 70 21.1 67 19.4 90 90 SE 10 17 29.62 1003 10 16 0.01 0.25
10:52 am 10:52 Partly Cloudy 74 23.3 68 20 82 82 SE 13 20 29.62 1003 10 16 0.00 0.00
11:52 am 11:52 Cloudy with Light Rain 73 22.8 68 20 84 84 W 5 7 29.62 1003 9 14 0.00 0.00
12:00 pm 12:00 Cloudy with Nearby Thunderstorms 73 22.8 69 20.6 87 87 SSW 5 7 29.60 1002 6 10 0.00 0.00
12:06 pm 12:06 Cloudy with Strong Thunderstorms 72 22.2 69 20.6 91 91 SW 5 7 29.60 1003 3 4 0.01 0.25
12:15 pm 12:15 Cloudy with Strong Thunderstorms 72 22.2 70 21.1 94 94 ESE 9 15 29.58 1002 2 3 0.08 2.03
12:22 pm 12:22 Cloudy with Strong Thunderstorms 72 22.2 70 21.1 94 94 ESE 13 20 29.56 1001 3 5 0.11 2.79
12:52 pm 12:52 Cloudy with Thunderstorms 71 21.7 68 20 90 90 S 7 11 29.57 1001 10 16 0.13 3.30
1:22 pm 13:22 Cloudy with Strong Thunderstorms 66 18.9 64 17.8 93 93 NNW 20 31 29.58 1002 2 3 0.10 2.54
1:24 pm 13:24 Cloudy with Strong Thunderstorms 66 18.9 64 17.8 93 93 NW 22 35 29.59 1002 2 2 0.12 3.05
1:27 pm 13:27 Cloudy with Strong Thunderstorms 66 18.9 64 17.8 93 93 WNW 17 28 29.59 1002 1 1 0.19 4.83
1:31 pm 13:31 Cloudy with Strong Thunderstorms 66 18.9 65 18.3 96 96 NW 13 20 29.58 1002 1 1 0.44 11.18
1:39 pm 13:39 Cloudy with Thunderstorms 66 18.9 65 18.3 96 96 WNW 7 11 29.58 1002 2 3 0.81 20.57
1:41 pm 13:41 Cloudy with Thunderstorms 66 18.9 65 18.3 96 96 WNW 7 11 29.58 1002 5 8 0.81 20.57
1:52 pm 13:52 Cloudy with Thunderstorms 66 18.9 65 18.3 96 96 NNW 7 11 29.58 1002 10 16 0.81 20.57
1:56 pm 13:56 Cloudy with Nearby Thunderstorms 66 18.9 66 18.9 100 100 NW 6 9 29.58 1002 10 16 0.00 0.00
2:18 pm 14:18 Cloudy 67 19.4 65 18.3 93 93 SW 5 7 29.57 1001 10 16 0.00 0.00
2:26 pm 14:26 Cloudy 67 19.4 66 18.9 97 97 Calm 29.56 1001 10 16 0.00 0.00
2:35 pm 14:35 Cloudy 68 20 66 18.9 93 93 Calm 29.55 1001 10 16 0.00 0.00
2:52 pm 14:52 Cloudy 70 21.1 67 19.4 90 90 W 5 7 29.56 1001 10 16 0.00 0.00
3:48 pm 15:48 Mostly Cloudy 75 24 72 22 89 89 W 8 13 29.53 1000 10 16 0.00 0.00
3:52 pm 15:52 Mostly Cloudy 76 24.4 71 21.7 85 85 W 9 15 29.54 1000 10 16 0.00 0.00
3:59 pm 15:59 Mostly Cloudy 77 25 71 21.7 82 82 WSW 9 15 29.51 999 10 16 0.00 0.00
4:24 pm 16:24 Partly Cloudy 78 25.6 72 22.2 82 82 WSW 10 17 29.51 999 10 16 0.00 0.00
4:52 pm 16:52 Mostly Sunny 79 26.1 72 22.2 79 79 WSW 9 15 29.52 1000 10 16 0.00 0.00
5:52 pm 17:52 Sunny 81 27.2 71 21.7 72 72 SW 14 22 29.51 999 10 16 0.00 0.00
6:52 pm 18:52 Sunny 80 26.7 72 22.2 76 76 SSW 7 11 29.49 999 10 16 0.00 0.00
7:52 pm 19:52 Sunny 78 25.6 72 22.2 82 82 S 8 13 29.49 999 10 16 0.00 0.00
8:52 pm 20:52 Clear 75 23.9 69 20.6 82 82 S 9 15 29.50 999 10 16 0.00 0.00
9:52 pm 21:52 Clear 75 23.9 67 19.4 76 76 S 13 20 29.50 999 10 16 0.00 0.00
10:52 pm 22:52 Clear 74 23.3 66 18.9 76 76 S 14 22 29.49 999 10 16 0.00 0.00
11:52 pm 23:52 Clear 73 22.8 65 18.3 76 76 S 12 19 29.48 998 10 16 0.00 0.00

Powered by AerisWeather